Location: Ferma
(41.9500°N, 44.5167°E)
Time: 19:21:49
(UTC+00:00)

Cosmos 1300 - Pass Details

Date: 24 October 2021
Orbit: 509 x 512 km, 82.5° (Epoch: 01 December)

Event Time Altitude Azimuth Distance (km) Brightness Sun altitude
Rises 14:41:34 0° 171° (S) 2,610 6.3 -7.1°
Reaches altitude 10° 14:43:45 10° 164° (SSE) 1,729 5.3 -7.5°
Maximum altitude 14:47:20 42° 93° (E) 745 3.0 -8.2°
Drops below altitude 10° 14:50:57 10° 22° (NNE) 1,742 5.1 -8.9°
Sets 14:53:10 0° 15° (NNE) 2,633 6.1 -9.3°
